{"data":{"norad_id":67248,"intl_designator":"2025-313A","name":"2025-313A","alt_names":[],"object_type":"PAYLOAD","status":"ACTIVE","operator":null,"country":"TBD","launch_date":"2025-12-28","launch_site_code":"VOSTO","launch_vehicle":null,"mission":null,"orbit_class":"UNKNOWN","rcs_meters":null,"size_class":null,"mass_kg":null,"dimensions":null,"purposes":[],"wikipedia_slug":null,"has_3d_model":false,"image_url":null,"decayed_at":null,"tle_current":{"epoch":"2026-09-20T20:45:39.497472Z","epoch_age_seconds":71559,"freshness":"FRESH","line1":"1 67248U 25313A   26263.86504048  .00000707  00000+0  75616-4 0  9997","line2":"2 67248  97.5327 320.7578 0277493  29.5272 332.1286 14.67465109 39058","mean_motion":14.67465109,"eccentricity":0.0277493,"inclination_deg":97.5327,"raan_deg":320.7578,"arg_perigee_deg":29.5272,"mean_anomaly_deg":332.1286,"bstar":7.5616e-5,"rev_number":3905,"period_min":98.128397818009,"perigee_km":473.6141773976,"apogee_km":864.72996460548,"semimajor_km":7047.3090710015,"source":"CELESTRAK","updated_at":"2026-09-21T09:00:16.510630Z"}}}